Regional Weather Roundup
Issued by NWS

Home | Current Version | Previous Version | Graphics & Text | Print | Product List | Glossary On
Versions: 1 2 3 4 5 6 7 8 9 10 11 12 13 14 15 16 17 18 19 20 21 22 23 24 25 26 27 28 29 30 31 32 33 34 35 36 37 38 39 40 41 42 43 44 45 46 47 48 49 50
000
ASUS43 KOAX 221110
RWRNE

WEATHER ROUNDUP FOR NEBRASKA
NATIONAL WEATHER SERVICE OMAHA NE
600 AM CDT TUE APR 22 2014

NOTES: SATELLITE DATA IS BEING USED TO AUGMENT CLOUD COVER ABOVE
       12000 FEET.
       "FAIR" INDICATES FEW OR NO CLOUDS BELOW 12,000 FEET WITH NO
       SIGNIFICANT WEATHER AND/OR OBSTRUCTIONS TO VISIBILITY.

  * THESE STATIONS DO NOT REPORT WEATHER SUCH AS RAIN...SNOW OR FOG.

NEZ001>004-019>022-054>056-221200-
NEBRASKA PANHANDLE

CITY           SKY/WX    TMP DP  RH WIND       PRES   REMARKS
SCOTTSBLUFF    CLEAR     45  30  55 E10       29.99F
ALLIANCE       PTCLDY    45  29  53 S18       30.01F
CHADRON        PTCLDY    52  30  43 S25G33    29.91F
KIMBALL        PTCLDY    44  31  60 S12       30.02F
SIDNEY         CLEAR     49  32  52 S17       30.05F
$$

NEZ057>060-069>072-079>082-221200-
SOUTHWEST NEBRASKA

CITY           SKY/WX    TMP DP  RH WIND       PRES   REMARKS
NORTH PLATTE   CLEAR     34  28  79 SE6       30.12F WCI  29
IMPERIAL       CLEAR     42  29  59 SE10      30.11F
LEXINGTON      CLEAR     41  31  69 SE3       30.14S
MCCOOK         PTCLDY    45  29  53 SE8       30.13F
OGALLALA       CLEAR     45  28  50 E5        30.09F
$$

NEZ005>010-023>029-035>040-094-221200-
NORTH CENTRAL NEBRASKA

CITY           SKY/WX    TMP DP  RH WIND       PRES   REMARKS
VALENTINE      CLEAR     43  29  57 SE7       30.08F
AINSWORTH      PTCLDY    40  32  71 S8        30.10F
BROKEN BOW     PTCLDY    32  28  85 CALM      30.13F
O`NEILL        PTCLDY    40  29  65 S6        30.13F
ORD            CLEAR     32  27  81 CALM      30.13F
THEDFORD       PTCLDY    46  28  49 S8        30.11F
$$

NEZ041-046>049-061>064-073>077-083>087-221200-
SOUTH CENTRAL NEBRASKA

CITY           SKY/WX    TMP DP  RH WIND       PRES   REMARKS
GRAND ISLAND   CLEAR     40  31  70 E3        30.15S
AURORA         CLEAR     39  31  71 CALM      30.15S
HASTINGS       CLEAR     42  30  62 SW3       30.15S
HEBRON         CLEAR     38  32  79 CALM      30.15S
HOLDREGE       CLEAR     41  30  64 SE6       30.14R
KEARNEY *      CLEAR     41  30  65 CALM      30.15S
YORK           CLEAR     37  30  75 E3        30.15S
$$

NEZ011>018-030>034-042>045-221200-
NORTHEAST NEBRASKA

CITY           SKY/WX    TMP DP  RH WIND       PRES   REMARKS
NORFOLK        CLEAR     38  30  73 SE3       30.14F
ALBION         CLEAR     34  29  82 CALM      30.15S
BLAIR          CLEAR     45  31  57 N6        30.15S
COLUMBUS *     CLEAR     37  27  65 CALM      30.16S
FREMONT        CLEAR     37  31  80 CALM      30.16S
TEKAMAH        CLEAR     36  28  73 NW5       30.16S WCI  32
$$

NEZ050>053-065>068-078-088>093-221200-
SOUTHEAST NEBRASKA

CITY           SKY/WX    TMP DP  RH WIND       PRES   REMARKS
LINCOLN        CLEAR     43  32  65 N3        30.16F
OMAHA EPPLEY   CLEAR     40  33  76 N5        30.16S
BEATRICE       CLEAR     43  32  63 NE3       30.15S
FALLS CITY     CLEAR     44  32  62 N5        30.14S
NEBRASKA CITY  CLEAR     42  32  66 N6        30.15S
PLATTSMOUTH    CLEAR     44  30  58 NE7       30.15F
$$

NEZ044-045-051>053-067-221200-
OMAHA AREA

CITY           SKY/WX    TMP DP  RH WIND       PRES   REMARKS
OMAHA EPPLEY   CLEAR     40  33  76 N5        30.16S
BLAIR          CLEAR     45  31  57 N6        30.15S
FREMONT        CLEAR     37  31  80 CALM      30.16S
MILLARD        CLEAR     43  32  64 CALM      30.16S
OFFUTT AFB     CLEAR     41  33  71 NE5       30.15F
PLATTSMOUTH    CLEAR     44  30  58 NE7       30.15F
WAHOO          FAIR      38  30  72 N5        30.15S WCI  35
$$



USA.gov is the U.S. government's official web portal to all federal, state and local government web resources and services.